This demonstration page uses our WeatherBlox Daily Observations layout. Learn more.

Hourly Observations for August 25, 2019

Temp ( °F °C ) Dew Point ( °F °C ) Humidity (%) Winds ( mph kmh ) Pressure ( in mb ) Visibility ( mi km ) Precip ( " mm )
12:15 am 00:15 Cloudy 66 19 57 14 73 73 NNE 5 7 30.24 1024 10 16.09344 0 0
12:35 am 00:35 Cloudy 66 19 57 14 73 73 N 5 7 30.24 1024 10 16.09344 0 0
12:55 am 00:55 Cloudy 66 19 55 13 68 68 NNE 3 6 30.24 1024 10 16.09344 0 0
1:15 am 01:15 Cloudy 64 18 57 14 78 78 NNE 5 7 30.24 1024 10 16.09344 0 0
1:35 am 01:35 Cloudy 64 18 57 14 78 78 NNE 5 7 30.24 1024 10 16.09344 0 0
1:55 am 01:55 Cloudy 64 18 57 14 78 78 NNE 5 7 30.21 1023 10 16.09344 0 0
2:15 am 02:15 Cloudy 64 18 57 14 78 78 NNE 6 9 30.21 1023 10 16.09344 0 0
2:35 am 02:35 Mostly Cloudy 64 18 59 15 83 83 NNE 5 7 30.21 1023 10 16.09344 0 0
2:55 am 02:55 Mostly Cloudy 64 18 57 14 78 78 NNE 5 7 30.21 1023 10 16.09344 0 0
3:15 am 03:15 Cloudy 64 18 57 14 78 78 NNE 3 6 30.21 1023 10 16.09344 0 0
3:35 am 03:35 Cloudy 64 18 57 14 78 78 Calm 30.21 1023 10 16.09344 0 0
3:55 am 03:55 Cloudy 63 17 57 14 83 83 NE 3 6 30.21 1023 10 16.09344 0 0
4:15 am 04:15 Cloudy 63 17 59 15 88 88 Calm 30.21 1023 10 16.09344 0 0
4:35 am 04:35 Cloudy 63 17 59 15 88 88 Calm 30.21 1023 10 16.09344 0 0
4:55 am 04:55 Cloudy 63 17 59 15 88 88 Calm 30.21 1023 10 16.09344 0 0
5:15 am 05:15 Cloudy 63 17 59 15 88 88 NNE 3 6 30.21 1023 10 16.09344 0 0
5:35 am 05:35 Cloudy 63 17 59 15 88 88 Calm 30.21 1023 10 16.09344 0 0
5:55 am 05:55 Cloudy 63 17 59 15 88 88 NNE 3 6 30.21 1023 10 16.09344 0 0
6:15 am 06:15 Cloudy 63 17 59 15 88 88 NNE 3 6 30.21 1023 10 16.09344 0 0
6:35 am 06:35 Cloudy 63 17 59 15 88 88 NE 5 7 30.24 1024 10 16.09344 0 0
6:55 am 06:55 Cloudy 63 17 59 15 88 88 NE 3 6 30.24 1024 10 16.09344 0 0
7:15 am 07:15 Cloudy 63 17 59 15 88 88 NNE 3 6 30.24 1024 10 16.09344 0 0
7:35 am 07:35 Cloudy 63 17 59 15 88 88 NNE 6 9 30.24 1024 10 16.09344 0 0
7:55 am 07:55 Cloudy 64 18 59 15 83 83 NNE 7 11 30.24 1024 10 16.09344 0 0
8:15 am 08:15 Mostly Cloudy 64 18 59 15 83 83 NNE 5 7 30.24 1024 10 16.09344 0 0
8:35 am 08:35 Partly Cloudy 68 20 61 16 78 78 NE 7 11 30.27 1025 10 16.09344 0 0
8:55 am 08:55 Sunny 68 20 59 15 73 73 NE 7 11 30.24 1024 10 16.09344 0 0
9:15 am 09:15 Sunny 70 21 59 15 69 69 NNE 8 13 30.24 1024 10 16.09344 0 0
9:35 am 09:35 Sunny 70 21 59 15 69 69 NE 6 9 30.24 1024 10 16.09344 0 0
9:55 am 09:55 Sunny 72 22 57 14 61 61 NE 13 20 30.27 1025 10 16.09344 0 0
10:15 am 10:15 Sunny 72 22 59 15 65 65 NE 7 11 30.27 1025 10 16.09344 0 0
10:35 am 10:35 Sunny 72 22 59 15 65 65 ENE 8 13 30.27 1025 10 16.09344 0 0
10:55 am 10:55 Partly Cloudy 72 22 59 15 65 65 E 5 7 30.24 1024 10 16.09344 0 0
11:15 am 11:15 Sunny 73 23 55 13 53 53 ENE 12 19 30.24 1024 10 16.09344 0 0
11:35 am 11:35 Partly Cloudy 73 23 55 13 53 53 ENE 14 22 30.24 1024 10 16.09344 0 0
11:55 am 11:55 Partly Cloudy 77 25 55 13 47 47 ENE 8 13 30.24 1024 10 16.09344 0 0
12:15 pm 12:15 Partly Cloudy 77 25 55 13 47 47 ENE 15 24 30.24 1024 10 16.09344 0 0
12:35 pm 12:35 Partly Cloudy 77 25 55 13 47 47 ENE 12 19 30.24 1024 10 16.09344 0 0
12:55 pm 12:55 Mostly Cloudy 77 25 54 12 44 44 ENE 13 20 30.24 1024 10 16.09344 0 0
1:15 pm 13:15 Partly Cloudy 77 25 55 13 47 47 ESE 8 13 30.21 1023 10 16.09344 0 0
1:35 pm 13:35 Partly Cloudy 77 25 55 13 47 47 NE 12 19 30.21 1023 10 16.09344 0 0
1:55 pm 13:55 Mostly Cloudy 77 25 55 13 47 47 NE 12 19 30.21 1023 10 16.09344 0 0
2:15 pm 14:15 Mostly Cloudy 77 25 55 13 47 47 E 8 13 30.21 1023 10 16.09344 0 0
2:35 pm 14:35 Partly Cloudy 79 26 54 12 42 42 NE 8 13 30.21 1023 10 16.09344 0 0
2:55 pm 14:55 Partly Cloudy 79 26 54 12 42 42 ESE 12 19 30.21 1023 10 16.09344 0 0
3:15 pm 15:15 Partly Cloudy 79 26 55 13 45 45 ENE 6 9 30.18 1022 10 16.09344 0 0
3:35 pm 15:35 Partly Cloudy 79 26 54 12 42 42 E 6 9 30.18 1022 10 16.09344 0 0
3:55 pm 15:55 Sunny 79 26 54 12 42 42 ESE 9 15 30.18 1022 10 16.09344 0 0
4:15 pm 16:15 Mostly Cloudy 77 25 54 12 44 44 ESE 7 11 30.18 1022 10 16.09344 0 0
4:35 pm 16:35 Cloudy 77 25 55 13 47 47 ENE 10 17 30.18 1022 10 16.09344 0 0
4:55 pm 16:55 Mostly Cloudy 77 25 55 13 47 47 E 9 15 30.18 1022 10 16.09344 0 0
5:15 pm 17:15 Mostly Cloudy 77 25 55 13 47 47 E 7 11 30.18 1022 10 16.09344 0 0
5:35 pm 17:35 Partly Cloudy 77 25 54 12 44 44 ENE 8 13 30.18 1022 10 16.09344 0 0
5:55 pm 17:55 Sunny 77 25 55 13 47 47 ENE 7 11 30.18 1022 10 16.09344 0 0
6:15 pm 18:15 Sunny 77 25 55 13 47 47 ENE 9 15 30.18 1022 10 16.09344 0 0
6:35 pm 18:35 Sunny 77 25 55 13 47 47 ENE 9 15 30.18 1022 10 16.09344 0 0
6:55 pm 18:55 Sunny 77 25 55 13 47 47 NE 6 9 30.18 1022 10 16.09344 0 0
7:15 pm 19:15 Sunny 75 24 55 13 50 50 ENE 5 7 30.18 1022 10 16.09344 0 0
7:35 pm 19:35 Sunny 73 23 55 13 53 53 ENE 6 9 30.18 1022 10 16.09344 0 0
7:55 pm 19:55 Clear 73 23 55 13 53 53 ENE 5 7 30.18 1022 10 16.09344 0 0
8:15 pm 20:15 Clear 72 22 57 14 61 61 ENE 5 7 30.18 1022 10 16.09344 0 0
8:35 pm 20:35 Clear 72 22 57 14 61 61 ENE 5 7 30.18 1022 10 16.09344 0 0
8:55 pm 20:55 Clear 72 22 59 15 65 65 E 3 6 30.18 1022 10 16.09344 0 0
9:15 pm 21:15 Clear 70 21 59 15 69 69 Calm 30.21 1023 10 16.09344 0 0
9:35 pm 21:35 Clear 70 21 59 15 69 69 Calm 30.21 1023 10 16.09344 0 0
9:55 pm 21:55 Clear 70 21 59 15 69 69 Calm 30.21 1023 10 16.09344 0 0
10:15 pm 22:15 Partly Cloudy 68 20 59 15 73 73 Calm 30.21 1023 10 16.09344 0 0
10:35 pm 22:35 Clear 64 18 61 16 88 88 Calm 30.21 1023 10 16.09344 0 0
10:55 pm 22:55 Partly Cloudy 63 17 61 16 94 94 Calm 30.21 1023 10 16.09344 0 0
11:15 pm 23:15 Cloudy 64 18 61 16 88 88 Calm 30.21 1023 10 16.09344 0 0
11:35 pm 23:35 Mostly Cloudy 66 19 61 16 83 83 ESE 3 6 30.21 1023 10 16.09344 0 0
11:55 pm 23:55 Partly Cloudy 68 20 61 16 78 78 Calm 30.21 1023 10 16.09344 0 0

Powered by AerisWeather